Location: Hilderbrand
(37.5756°N, 89.8540°W)
Time: 11:59:39
(UTC+00:00)

COSMO-SKYMED 1 - Pass Details

Date: 15 November 2025
Orbit: 579 x 581 km, 97.9° (Epoch: 05 December)

Event Time Altitude Azimuth Distance (km) Brightness Sun altitude
Exits shadow 23:35:52 - 31° (NNE) 2,320 5.1 -9.7°
Reaches altitude 10° 23:37:02 10° 38° (NE) 1,899 4.6 -9.9°
Maximum altitude 23:40:31 26° 96° (E) 1,143 3.4 -10.6°
Drops below altitude 10° 23:43:59 10° 155° (SSE) 1,886 4.9 -11.3°
Sets 23:46:23 0° 167° (SSE) 2,780 5.9 -11.7°
